Tracking 35274 objects as of 11-Sep-2026
HD Live streaming from Space Station
objects crossing your sky now

HULIANWANG DIGUI-49

Track HULIANWANG DIGUI-49 now!
10-day predictions


NORAD ID: 65106
Int'l Code: 2025-168A
Launch date: August 4, 2025
Source: People's Republic of China (PRC)
Launch site: Wenchang Satellite Launch Center (WSC)
Your satellite tracking list
Your tracking list is empty




NASA's NSSDC Master Catalog

Two Line Element Set (TLE):
1 65106U 25168A   26254.61798079 -.00000103  00000-0  45346-4 0  9997
2 65106  50.0049  15.9725 0007502   2.4460 357.6448 13.29325559 54186
Source of the keplerian elements: AFSPC